Perturbed ephemeris below is based on elements from NK 504. Epoch = 2455360.50000 TT T = 2455354.87930 TT Peri. = 307.16624 a = 3.4541672 AU Node = 66.50880 J2000.0 e = 0.6300043 Incl. = 4.94478 q = 1.2780272 AU
m1 = 13.0 + 5 logΔ + 25 log r